Retour au catalogue

STARLINK-11210

ActifCommunicationsVLEO
NORAD 60116·PAYLOAD·🇺🇸 United States

Lancé Jun 24, 2024 depuis Vandenberg Space Force Base

Loading…

Prochains Passages (prochaines 24 heures)

TLE

FraisSource: CelesTrak SupGP

Époque: Sep 15, 2026, 03:31 UTC

1 60116C 24118D   26258.14701389 -.00031095  00000+0 -25618-3 0  2588
2 60116  53.1574   7.4562 0000974 103.7793  45.6270 15.69721710    19

Suivez STARLINK-11210 en temps réel avec AllMySat

Download on the App Store